NOAA NWS Hourly Roundups by Site

Regional Weather Roundup for State College, PA

To Select Another Site Choose from List

Select Site:  

000
ASUS41 KCTP 170810
RWRCTP

REGIONAL WEATHER ROUNDUP
NATIONAL WEATHER SERVICE STATE COLLEGE PA
300 AM EST THU JAN 17 2019

Note: "fair" indicates few or no clouds below 12,000 feet with no
significant weather and/or obstructions to visibility.

* = STATION THAT DOES NOT REPORT PRECIPITATION /E.G. RAIN...SNOW...ETC/
    THUNDER OR FOG.

PAZ002>004-007>009-013>016-020>023-029>032-170900-
WESTERN PENNSYLVANIA

CITY           SKY/WX    TMP DP  RH WIND       PRES   REMARKS
ERIE           FAIR      15  10  80 CALM      30.34R
MEADVILLE      FAIR      15  12  88 NE3       30.27R
FRANKLIN*      FAIR      14  12  92 N5        30.27R WCI   6
NEW CASTLE     CLOUDY    17  15  92 NE5       30.31S WCI  10
BEAVER COUNTY  NOT AVBL
BUTLER*        CLOUDY    20  17  88 NE6       30.29S WCI  12
PITTSBURGH INT CLOUDY    25  20  81 NE5       30.28S
PITTSBURGH     CLOUDY    26  21  81 VRB3      30.27S
INDIANA*       CLOUDY    23  19  86 CALM      30.31R
LATROBE        CLOUDY    27  23  86 NE6       30.28S
WASHINGTON CO* CLOUDY    28  25  88 NE3       30.30R
$$

PAZ004>006-010>012-017>019-024>028-033>037-041-042-045-046-049>053-170900-
CENTRAL PENNSYLVANIA

CITY           SKY/WX    TMP DP  RH WIND       PRES   REMARKS
BRADFORD       FAIR       8   5  87 CALM      30.20R
DUBOIS         FAIR      15  10  80 CALM      30.23R
CLEARFIELD     FAIR      17  13  84 N3        30.27R
JOHNSTOWN      CLOUDY    22  17  81 CALM      30.21R
ALTOONA        CLOUDY    26  18  71 N6        30.26R
STATE COLLEGE  FAIR      21  15  78 CALM      30.28R
WILLIAMSPORT   FAIR      22  12  65 N3        30.33R
SELINSGROVE    FAIR      24  14  65 N7        30.32S
FT INDIANTOWN  FAIR      29  15  55 N6        30.30R
CAPITAL CITY   FAIR      33  15  47 NW7       30.31R
HARRISBURG     CLOUDY    32  16  51 NW8       30.30R
YORK           FAIR      31  19  61 N5        30.30R
$$

PAZ038>040-043-044-047-048-054-055-060>062-067>071-170900-
EASTERN PENNSYLVANIA

CITY           SKY/WX    TMP DP  RH WIND       PRES   REMARKS
SCRANTON       FAIR      18   7  62 N5        30.30R WCI  11
MOUNT POCONO   FAIR      15   6  67 NW10      30.20S WCI   2
ALLENTOWN      FAIR      27  14  58 N7        30.31R
QUAKERTOWN*    SUNNY     28  14  54 N5G12     30.30R
READING        NOT AVBL
LANCASTER      FAIR      32  18  56 N5        30.30R
COATESVILLE    FAIR      30  18  59 N5        30.29S
POTTSTOWN      FAIR      28  14  55 N3        30.32R
BLUE BELL      FAIR      30  16  55 CALM      30.32R
DOYLESTOWN     FAIR      29  14  53 N9        30.30R
WILLOW GROVE   NOT AVBL
NORTH PHILA    FAIR      31  15  52 N6        30.33R
PHILADELPHIA   CLOUDY    32  16  51 N6        30.32R
$$


 

View Past Reports for State College, PA.

Products Courtesy of NOAA-NWS
NWS Information Parsing Script by Ken True at Saratoga Weather - Script by SE Lincoln Weather.